STARLINK-1669, 47624

Orbit data source: Space-Track

STARLINK-1669, 47624 is a payload satellite owned by SpaceX/Seattle (US) in LEO that was launched on Tue, 16 Feb 2021 UTC via an FALCON 9 launch vehicle from the Air Force Eastern Test Range (AFETR). Payload-class satellites include a variety of spacecraft equipped with specific instruments for various scientific and technological missions. These include communications satellites like Starlink; space stations such as the ISS; scientific satellites like the Hubble; Earth observation satellites from companies like Planet Labs, Umbra, and HawkEye 360; GPS; miniature CubeSats for education and research; and military/defense satellites.

Loading next visibility...
Identifier
47624, 2021-012E
Orbit
LEO
Country
Flag of USUS
Related business
Manufacturer
SpaceX/Seattle
Mission
Partially operational Commercial Communications
Bus & Motor
STARLINK, Unknown motor
Mass
260 kg wet, ~248 kg dry
Launch date (UTC)
2021-02-16 (5 years ago)
Launch vehicle
FALCON 9
Launch site
Air Force Eastern Test Range (AFETR)
Object type
Payload
Rocket body
Debris
Shape & HBR
Box + 1 Pan, 10.1 m
Radar Cross Section
13.562 m², Large (>1 m²)

Expand to show TLE details & history
Last TLE update: 9 hours ago

TLE from 9 hours ago
0 STARLINK-1669
1 47624U 21012E   25343.51976004  .00122940  00000-0  25480-2 0  9997
2 47624  53.0466  69.9981 0005797 178.0492 182.0537 15.44832085267067
Epoch: 2025-12-09T12:28Z
TLE epoch observation values (Epoch: 2025-12-09T12:28:27.267Z)
Latitude
-0.00004°
Longitude
164.38119°
Altitude
436.71 km
Speed
7.649 km/s
True Right ascension
04h 39m 59s
True Declination
0° 00' 00"
Sunlit
Object was in full shadow at epoch
Visualization orbit readout
Latitude
Unknown
Longitude
Unknown
Altitude
Unknown
Speed
Unknown
Apparent Right ascension
Unknown
Apparent Declination
Unknown
Sunlit
N/A
Visualization observer readout
Local Sidereal Time
19:51:21
Azimuth
Unknown
Elevation
Unknown
Doppler factor
Unknown
Orbital elements
Apogee altitude
436.096 km
Perigee altitude
428.2 km
Semi-major axis
6,810.285 km
Eccentricity
0.00058
Inclination
53.0466°
RAAN
69.9981°
Arg. of periapsis
178.0492°
True anomaly
182.05132°
Mean anomaly
182.0537°
Eccentric anomaly
182.05251°
Mean motion
3.86185 °/min
Orbital period
93.22 mins
BSTAR
0.002548
Loading maneuver chart data...
Computing Atmospheric mass density...
Loading historical data...
Loading historical data...
Loading historical data...
Loading historical data...
Loading historical data...
Loading historical data...
Loading historical data...

Documentation

Showing up to 5 results
|